Вернуться в каталог

PLATERO

АктивенНаукаPO
NORAD 58262·PAYLOAD·🇪🇸 Spain

Запущен Nov 11, 2023 с Vandenberg Space Force Base

Loading…

Ближайшие Пролёты (ближайшие 24 часа)

TLE

СвежийSource: Space-Track

Эпоха: Sep 14, 2026, 13:55 UTC

1 58262U 23174G   26257.58053941  .00044677  00000-0  36853-3 0  9993
2 58262  97.3923   0.2355 0004888 117.2915 242.8845 15.70215042160183

Отслеживайте PLATERO в реальном времени с AllMySat

Download on the App Store